FW9243 Weather Reports


Display with metric or nautical units.
time (UTC)temp
F
wind
direction
speed
MPH
gust
MPH
rain 1hr
in
rain 24hr
in
rain mn
in
humidity
%
barometer
mb
20260903063804 58 36 0.0 2.0 0.00 0.00 0.00 95 1021.2
20260903063757 58 56 1.0 2.0 0.00 0.00 0.00 95 1021.6
20260903063304 58 174 1.0 2.0 0.00 0.00 0.00 95 1021.0
20260903063300 58 135 1.0 2.0 0.00 0.00 0.00 95 1021.4
20260903063042 61 0 1.0 1.0 0.00 0.00 0.00 100 1022.1
20260903062756 58 178 1.0 2.0 0.00 0.00 0.00 95 1021.5
20260903062541 58 171 1.0 2.0 0.00 0.00 0.00 95 1021.6
20260903062330 58 171 1.0 2.0 0.00 0.00 0.00 95 1021.6
20260903062306 58 182 0.0 1.0 0.00 0.00 0.00 95 1021.2
20260903062051 58 178 0.0 2.0 0.00 0.00 0.00 95 1021.6
20260903061809 58 178 0.0 2.0 0.00 0.00 0.00 95 1021.6
20260903061804 58 173 0.0 2.0 0.00 0.00 0.00 95 1021.2
20260903061557 61 153 1.0 1.0 0.00 0.00 0.00 100 1022.2
20260903061305 58 187 0.0 1.0 0.00 0.00 0.00 95 1021.2
20260903061301 58 197 0.0 1.0 0.00 0.00 0.00 95 1021.6
20260903060803 59 213 0.0 1.0 0.00 0.00 0.00 95 1021.3
20260903060756 59 331 0.0 1.0 0.00 0.00 0.00 95 1021.6
20260903060304 59 205 0.0 1.0 0.00 0.00 0.00 95 1021.3
20260903060258 59 45 0.0 1.0 0.00 0.00 0.00 95 1021.7
20260903060046 61 0 0.0 1.0 0.00 0.00 0.00 100 1022.3
20260903055755 59 223 0.0 1.0 0.00 0.00 0.00 95 1021.8
20260903055306 59 75 0.0 1.0 0.00 0.00 0.00 95 1021.3
20260903055259 59 135 0.0 1.0 0.00 0.00 0.00 95 1021.6
20260903054803 59 191 0.0 1.0 0.00 0.00 0.00 95 1021.2
20260903054756 59 269 0.0 1.0 0.00 0.00 0.00 95 1021.6
20260903054541 61 0 0.0 1.0 0.00 0.00 0.00 100 1022.1
20260903054303 59 175 0.0 1.0 0.00 0.00 0.00 95 1021.3
20260903054258 59 45 0.0 1.0 0.00 0.00 0.00 95 1021.6
20260903053755 59 45 0.0 2.0 0.00 0.00 0.00 95 1021.6
20260903053303 59 46 1.0 2.0 0.00 0.00 0.00 95 1021.0
20260903053258 59 35 1.0 2.0 0.00 0.00 0.00 95 1021.5
20260903053100 61 0 0.0 1.0 0.00 0.00 0.00 100 1022.0
20260903052804 59 34 0.0 1.0 0.00 0.00 0.00 95 1021.1
20260903052756 59 1 0.0 1.0 0.00 0.00 0.00 95 1021.4
20260903052527 59 45 0.0 1.0 0.00 0.00 0.00 95 1021.5
20260903052307 59 76 0.0 2.0 0.00 0.00 0.00 95 1020.9
20260903051804 59 62 0.0 1.0 0.00 0.00 0.00 95 1021.0
20260903051755 59 314 0.0 1.0 0.00 0.00 0.00 95 1021.4
20260903051548 61 0 0.0 1.0 0.00 0.00 0.00 100 1022.0
20260903051522 59 45 0.0 1.0 0.00 0.00 0.00 95 1021.4
20260903051020 60 45 0.0 2.0 0.00 0.00 0.00 95 1021.5
20260903050808 60 27 0.0 1.0 0.00 0.00 0.00 95 1021.1
20260903050304 60 189 1.0 2.0 0.00 0.00 0.00 95 1021.0
20260903050258 60 223 1.0 2.0 0.00 0.00 0.00 95 1021.4
20260903050050 61 0 0.0 2.0 0.00 0.00 0.00 100 1022.1
20260903045754 60 178 0.0 2.0 0.00 0.00 0.00 95 1021.5
20260903045306 60 174 1.0 2.0 0.00 0.00 0.00 95 1021.2
20260903045257 60 168 1.0 2.0 0.00 0.00 0.00 95 1021.6
20260903044754 60 152 1.0 2.0 0.00 0.00 0.00 95 1021.6
20260903044542 61 153 0.0 1.0 0.00 0.00 0.00 100 1022.3
20260903044256 60 269 0.0 2.0 0.00 0.00 0.00 95 1021.8
20260903043804 60 163 0.0 1.0 0.00 0.00 0.00 95 1021.5
20260903043754 60 206 0.0 1.0 0.00 0.00 0.00 95 1021.8
20260903043304 60 225 0.0 2.0 0.00 0.00 0.00 95 1021.4
20260903043256 60 45 0.0 1.0 0.00 0.00 0.00 95 1021.8
20260903043047 61 205 0.0 1.0 0.00 0.00 0.00 100 1022.4
20260903042804 60 189 0.0 1.0 0.00 0.00 0.00 95 1021.5
20260903042754 60 269 0.0 2.0 0.00 0.00 0.00 95 1021.8
20260903042306 60 153 1.0 2.0 0.00 0.00 0.00 95 1021.6
20260903042257 60 178 1.0 2.0 0.00 0.00 0.00 95 1022.0
20260903041804 60 80 1.0 2.0 0.00 0.00 0.00 95 1021.6
20260903041754 60 269 0.0 2.0 0.00 0.00 0.00 95 1022.0
20260903041545 61 205 0.0 1.0 0.00 0.00 0.00 100 1022.6
20260903041304 60 198 1.0 1.0 0.00 0.00 0.00 95 1021.6
20260903041254 60 223 1.0 1.0 0.00 0.00 0.00 95 1022.1
20260903040804 60 210 0.0 2.0 0.00 0.00 0.00 95 1021.6
20260903040802 60 269 0.0 1.0 0.00 0.00 0.00 95 1022.0
20260903040304 60 162 0.0 1.0 0.00 0.00 0.00 95 1021.7
20260903040255 60 178 1.0 1.0 0.00 0.00 0.00 95 1022.0
20260903040105 61 0 0.0 1.0 0.00 0.00 0.00 100 1022.7
20260903035804 60 175 0.0 1.0 0.00 0.00 0.00 95 1021.7
20260903035753 60 135 0.0 1.0 0.00 0.00 0.00 95 1022.1
20260903035306 60 62 0.0 1.0 0.00 0.00 0.00 95 1021.7
20260903035258 60 45 0.0 1.0 0.00 0.00 0.00 95 1022.1
20260903034804 60 156 0.0 1.0 0.00 0.00 0.00 95 1021.7
20260903034753 60 206 0.0 1.0 0.00 0.00 0.00 95 1022.2
20260903034547 61 137 0.0 1.0 0.00 0.00 0.00 100 1022.7
20260903034304 60 176 0.0 1.0 0.00 0.00 0.00 95 1021.7
20260903034256 60 206 0.0 1.0 0.00 0.00 0.00 95 1022.2
20260903034240 60 178 0.0 1.0 0.00 0.00 0.00 95 1022.2
20260903033803 60 158 0.0 1.0 0.00 0.00 0.00 95 1021.8
20260903033305 60 210 0.0 1.0 0.00 0.00 0.00 95 1021.8
20260903033256 60 135 0.0 1.0 0.00 0.00 0.00 95 1022.2
20260903033051 61 0 0.0 1.0 0.00 0.00 0.00 100 1022.9
20260903032804 60 221 0.0 1.0 0.00 0.00 0.00 95 1021.9
20260903032752 60 269 0.0 1.0 0.00 0.00 0.00 95 1022.3
20260903032306 60 41 1.0 1.0 0.00 0.00 0.00 95 1021.8
20260903032255 60 45 1.0 1.0 0.00 0.00 0.00 95 1022.3
20260903031803 60 325 0.0 1.0 0.00 0.00 0.00 95 1021.9
20260903031752 60 269 0.0 1.0 0.00 0.00 0.00 95 1022.3
20260903031549 61 0 0.0 1.0 0.00 0.00 0.00 100 1022.9
20260903031303 60 9 0.0 1.0 0.00 0.00 0.00 95 1021.8
20260903031256 60 63 0.0 1.0 0.00 0.00 0.00 95 1022.2
20260903030803 60 18 0.0 1.0 0.00 0.00 0.00 95 1021.8
20260903030751 60 89 0.0 2.0 0.00 0.00 0.00 95 1022.3
20260903030303 60 163 1.0 2.0 0.00 0.00 0.00 95 1021.9
20260903030255 60 178 1.0 2.0 0.00 0.00 0.00 95 1022.4
20260903030110 61 0 0.0 1.0 0.00 0.00 0.00 100 1023.0
20260903025804 60 169 0.0 1.0 0.00 0.00 0.00 94 1022.0
20260903025751 60 161 0.0 1.0 0.00 0.00 0.00 94 1022.3
20260903025306 60 165 1.0 1.0 0.00 0.00 0.00 94 1022.1
20260903025254 60 178 1.0 1.0 0.00 0.00 0.00 94 1022.4
20260903024804 60 170 0.0 1.0 0.00 0.00 0.00 94 1022.1
20260903024751 60 165 0.0 1.0 0.00 0.00 0.00 94 1022.5
20260903024546 61 0 0.0 1.0 0.00 0.00 0.00 100 1023.3
20260903024304 60 56 1.0 1.0 0.00 0.00 0.00 94 1022.2
20260903024253 60 45 1.0 2.0 0.00 0.00 0.00 94 1022.6
20260903023751 60 269 1.0 2.0 0.00 0.00 0.00 94 1022.6
20260903023304 61 40 0.0 1.0 0.00 0.00 0.00 94 1022.2
20260903023300 60 45 0.0 1.0 0.00 0.00 0.00 94 1022.6
20260903023044 61 0 0.0 1.0 0.00 0.00 0.00 100 1023.5
20260903022804 61 43 0.0 1.0 0.00 0.00 0.00 94 1022.3
20260903022751 61 269 0.0 1.0 0.00 0.00 0.00 94 1022.9
20260903022537 61 1 1.0 1.0 0.00 0.00 0.00 94 1022.7
20260903022306 61 28 0.0 1.0 0.00 0.00 0.00 94 1022.2
20260903021753 61 269 0.0 1.0 0.00 0.00 0.00 94 1022.7
20260903021544 61 309 0.0 1.0 0.00 0.00 0.00 100 1023.5
20260903021304 61 41 1.0 1.0 0.00 0.00 0.00 94 1022.4
20260903021258 61 45 1.0 1.0 0.00 0.00 0.00 94 1022.9
20260903020804 61 288 0.0 1.0 0.00 0.00 0.00 94 1022.4
20260903020750 61 314 0.0 2.0 0.00 0.00 0.00 94 1023.0
20260903020304 61 11 0.0 2.0 0.00 0.00 0.00 94 1022.4
20260903020253 61 135 0.0 2.0 0.00 0.00 0.00 94 1022.9
20260903020044 61 0 0.0 1.0 0.00 0.00 0.00 100 1023.6
20260903015804 61 25 0.0 1.0 0.00 0.00 0.00 94 1022.3
20260903015755 61 20 0.0 1.0 0.00 0.00 0.00 94 1022.9
20260903015527 61 206 0.0 1.0 0.00 0.00 0.00 94 1022.7
20260903015306 61 254 0.0 1.0 0.00 0.00 0.00 94 1022.3
20260903014804 61 33 0.0 1.0 0.00 0.00 0.00 94 1022.3
20260903014753 61 45 0.0 1.0 0.00 0.00 0.00 94 1022.7
20260903014544 61 0 0.0 0.0 0.00 0.00 0.00 100 1023.4
20260903014304 61 246 0.0 1.0 0.00 0.00 0.00 94 1022.3
20260903014254 61 45 0.0 1.0 0.00 0.00 0.00 94 1022.7
20260903013804 61 11 0.0 1.0 0.00 0.00 0.00 93 1022.4
20260903013750 61 1 0.0 1.0 0.00 0.00 0.00 93 1022.9
20260903013252 61 45 0.0 1.0 0.00 0.00 0.00 93 1022.9
20260903013045 61 0 0.0 1.0 0.00 0.00 0.00 100 1023.6
20260903012804 61 322 0.0 1.0 0.00 0.00 0.00 93 1022.4
20260903012753 61 223 0.0 1.0 0.00 0.00 0.00 93 1022.9
20260903012542 61 20 0.0 2.0 0.00 0.00 0.00 93 1023.0
20260903012306 61 37 0.0 2.0 0.00 0.00 0.00 93 1022.4
20260903012255 61 20 0.0 2.0 0.00 0.00 0.00 93 1023.0
20260903011750 61 63 1.0 2.0 0.00 0.00 0.00 93 1023.0
20260903011548 61 51 0.0 1.0 0.00 0.00 0.00 100 1023.6
20260903011304 61 29 1.0 1.0 0.00 0.00 0.00 93 1022.5
20260903011257 61 28 1.0 1.0 0.00 0.00 0.00 93 1023.0
20260903010804 61 308 0.0 1.0 0.00 0.00 0.00 93 1022.4
20260903010749 61 223 0.0 1.0 0.00 0.00 0.00 93 1023.0
20260903010304 61 239 0.0 1.0 0.00 0.00 0.00 93 1022.4
20260903010251 61 223 0.0 1.0 0.00 0.00 0.00 93 1022.9
20260903010043 61 0 0.0 0.0 0.00 0.00 0.00 100 1023.6
20260903005804 61 6 0.0 1.0 0.00 0.00 0.00 93 1022.4
20260903005749 61 178 0.0 1.0 0.00 0.00 0.00 93 1023.0
20260903005252 61 45 0.0 1.0 0.00 0.00 0.00 93 1022.9
20260903005005 61 178 1.0 1.0 0.00 0.00 0.00 93 1023.0
20260903004947 61 45 0.0 1.0 0.00 0.00 0.00 93 1023.0
20260903004550 61 0 0.0 1.0 0.00 0.00 0.00 100 1023.7
20260903004304 61 177 1.0 1.0 0.00 0.00 0.00 93 1022.5
20260903003748 61 178 1.0 1.0 0.00 0.00 0.00 93 1023.1
20260903003304 61 218 0.0 1.0 0.00 0.00 0.00 93 1022.6
20260903003252 61 1 0.0 1.0 0.00 0.00 0.00 93 1023.1
20260903003050 61 0 0.0 1.0 0.00 0.00 0.00 100 1023.8
20260903002804 61 234 0.0 1.0 0.00 0.00 0.00 93 1022.6
20260903002748 61 223 0.0 1.0 0.00 0.00 0.00 93 1023.2
20260903002306 61 213 1.0 1.0 0.00 0.00 0.00 92 1022.5
20260903002250 61 223 1.0 1.0 0.00 0.00 0.00 92 1023.1
20260903001804 61 224 0.0 1.0 0.00 0.00 0.00 92 1022.6
20260903001749 61 223 0.0 1.0 0.00 0.00 0.00 92 1023.1
20260903001544 61 0 0.0 1.0 0.00 0.00 0.00 100 1023.9
20260903001304 61 353 0.0 1.0 0.00 0.00 0.00 92 1022.7
20260903001250 62 269 0.0 1.0 0.00 0.00 0.00 92 1023.1
20260903000804 62 272 0.0 1.0 0.00 0.00 0.00 92 1022.7
20260903000748 62 178 0.0 1.0 0.00 0.00 0.00 92 1023.1
20260903000513 62 314 0.0 1.0 0.00 0.00 0.00 93 1023.2
20260903000304 62 231 0.0 1.0 0.00 0.00 0.00 93 1022.7
20260903000042 61 0 0.0 0.0 0.00 0.00 0.00 100 1023.9
20260902235749 62 223 0.0 1.0 0.00 0.00 0.00 92 1023.2
20260902235306 62 247 0.0 1.0 0.00 0.00 0.00 92 1022.8
20260902235249 62 206 0.0 1.0 0.00 0.00 0.00 92 1023.3
20260902234804 62 258 0.0 1.0 0.00 0.00 0.00 92 1022.9
20260902234747 62 45 0.0 1.0 0.00 0.00 0.00 92 1023.5
20260902234551 62 0 0.0 1.0 0.00 0.00 0.00 100 1024.1
20260902234249 62 45 0.0 2.0 0.00 0.00 0.00 93 1023.4
20260902233804 62 227 0.0 1.0 0.00 0.00 0.00 93 1022.8
20260902233746 62 269 0.0 2.0 0.00 0.00 0.00 93 1023.4
20260902233523 62 135 1.0 1.0 0.00 0.00 0.00 93 1023.5
20260902233043 62 0 0.0 1.0 0.00 0.00 0.00 100 1024.1
20260902232804 62 203 0.0 1.0 0.00 0.00 0.00 92 1022.9
20260902232748 62 152 0.0 1.0 0.00 0.00 0.00 92 1023.4
20260902232306 63 174 1.0 1.0 0.00 0.00 0.00 92 1022.9
20260902232249 62 178 0.0 1.0 0.00 0.00 0.00 92 1023.5
20260902231804 63 224 0.0 1.0 0.00 0.00 0.00 92 1022.9
20260902231749 62 269 0.0 1.0 0.00 0.00 0.00 92 1023.4
20260902231551 62 93 0.0 1.0 0.00 0.00 0.00 100 1024.1
20260902231304 63 176 0.0 1.0 0.00 0.00 0.00 92 1022.9
20260902231254 63 178 0.0 1.0 0.00 0.00 0.00 92 1023.5
20260902230804 63 266 0.0 1.0 0.00 0.00 0.00 92 1023.0
20260902230751 63 63 0.0 1.0 0.00 0.00 0.00 92 1023.5
20260902230304 63 101 1.0 1.0 0.00 0.00 0.00 92 1023.0
20260902230302 63 89 1.0 1.0 0.00 0.00 0.00 92 1023.5
20260902230041 62 0 0.0 1.0 0.00 0.00 0.00 100 1024.2
20260902230022 63 89 1.0 1.0 0.00 0.00 0.00 91 1023.6
20260902225804 63 100 1.0 1.0 0.00 0.00 0.00 91 1023.0
20260902225305 63 178 0.0 1.0 0.00 0.00 0.00 91 1023.6
20260902224803 63 349 0.0 1.0 0.00 0.00 0.00 91 1023.1
20260902224748 63 1 0.0 1.0 0.00 0.00 0.00 91 1023.6
20260902224600 63 0 0.0 1.0 0.00 0.00 0.00 100 1024.2
20260902224252 63 269 0.0 1.0 0.00 0.00 0.00 91 1023.6
20260902223804 63 153 0.0 1.0 0.00 0.00 0.00 91 1023.1
20260902223746 63 152 0.0 1.0 0.00 0.00 0.00 91 1023.6
20260902223304 63 193 0.0 1.0 0.00 0.00 0.00 91 1023.2
20260902223253 63 178 0.0 1.0 0.00 0.00 0.00 91 1023.7
20260902223052 63 0 0.0 1.0 0.00 0.00 0.00 100 1024.3
20260902222804 63 336 0.0 1.0 0.00 0.00 0.00 91 1023.1
20260902222745 64 1 0.0 1.0 0.00 0.00 0.00 91 1023.7
20260902222306 64 17 0.0 1.0 0.00 0.00 0.00 91 1023.1
20260902222247 64 1 0.0 1.0 0.00 0.00 0.00 91 1023.6
20260902221804 64 287 0.0 1.0 0.00 0.00 0.00 91 1023.2
20260902221746 64 45 0.0 1.0 0.00 0.00 0.00 91 1023.7
20260902221558 63 9 0.0 1.0 0.00 0.00 0.00 100 1024.3
20260902221247 64 152 0.0 1.0 0.00 0.00 0.00 91 1023.7
20260902220804 64 225 0.0 1.0 0.00 0.00 0.00 90 1023.1
20260902220745 64 178 0.0 1.0 0.00 0.00 0.00 90 1023.7
20260902220304 64 172 0.0 1.0 0.00 0.00 0.00 90 1023.1
20260902220247 64 45 0.0 1.0 0.00 0.00 0.00 90 1023.6
20260902220056 64 0 0.0 1.0 0.00 0.00 0.00 100 1024.3
20260902215804 64 79 0.0 1.0 0.00 0.00 0.00 90 1023.1
20260902215746 64 1 0.0 1.0 0.00 0.00 0.00 90 1023.6
20260902215306 64 256 0.0 1.0 0.00 0.00 0.00 90 1023.1
20260902215246 64 1 0.0 1.0 0.00 0.00 0.00 90 1023.6
20260902214804 64 252 0.0 1.0 0.00 0.00 0.00 90 1023.1
20260902214745 64 45 0.0 1.0 0.00 0.00 0.00 90 1023.6
20260902214543 64 0 0.0 0.0 0.00 0.00 0.00 100 1024.3
20260902214304 64 179 0.0 1.0 0.00 0.00 0.00 90 1023.1
20260902214247 64 223 0.0 1.0 0.00 0.00 0.00 90 1023.6
20260902213804 64 166 0.0 1.0 0.00 0.00 0.00 90 1023.1
20260902213744 65 178 0.0 1.0 0.00 0.00 0.00 90 1023.5
20260902213728 65 178 0.0 1.0 0.00 0.00 0.00 89 1023.6
20260902213304 65 173 0.0 1.0 0.00 0.00 0.00 90 1023.1
20260902213042 64 0 0.0 1.0 0.00 0.00 0.00 100 1024.2
20260902212744 65 45 0.0 1.0 0.00 0.00 0.00 89 1023.5
20260902212245 65 178 0.0 1.0 0.00 0.00 0.00 89 1023.6
20260902211804 65 188 0.0 1.0 0.00 0.00 0.00 89 1023.0
20260902211744 65 223 0.0 1.0 0.00 0.00 0.00 89 1023.5
20260902211546 65 0 0.0 1.0 0.00 0.00 0.00 100 1024.1
20260902211246 65 269 0.0 1.0 0.00 0.00 0.00 89 1023.5
20260902210804 65 242 0.0 1.0 0.00 0.00 0.00 89 1022.9
20260902210744 65 223 0.0 1.0 0.00 0.00 0.00 89 1023.5
20260902210304 65 236 0.0 1.0 0.00 0.00 0.00 89 1022.9
20260902210250 65 223 0.0 1.0 0.00 0.00 0.00 89 1023.4
20260902210048 65 0 0.0 1.0 0.00 0.00 0.00 100 1024.0
20260902210011 66 206 0.0 1.0 0.00 0.00 0.00 89 1023.4
20260902205804 66 243 0.0 1.0 0.00 0.00 0.00 89 1022.9
20260902205306 66 205 0.0 1.0 0.00 0.00 0.00 89 1022.9
20260902205245 66 206 0.0 1.0 0.00 0.00 0.00 89 1023.4
20260902204816 66 152 0.0 1.0 0.00 0.00 0.00 89 1023.3
20260902204810 66 296 0.0 1.0 0.00 0.00 0.00 89 1023.3
20260902204804 66 246 0.0 1.0 0.00 0.00 0.00 89 1022.8
20260902204548 55 0 0.0 1.0 0.00 0.00 0.00 100 1023.9
20260902204304 66 179 0.0 1.0 0.00 0.00 0.00 89 1022.7
20260902203743 66 161 0.0 1.0 0.00 0.00 0.00 89 1023.3
20260902203304 66 95 0.0 1.0 0.00 0.00 0.00 88 1022.7
20260902203245 66 178 0.0 1.0 0.00 0.00 0.00 88 1023.3
20260902203048 55 0 0.0 1.0 0.00 0.00 0.00 100 1023.8
20260902202804 66 150 0.0 1.0 0.00 0.00 0.00 88 1022.6
20260902202743 67 178 0.0 1.0 0.00 0.00 0.00 88 1023.2
20260902202306 67 159 0.0 1.0 0.00 0.00 0.00 88 1022.5
20260902202246 67 45 0.0 1.0 0.00 0.00 0.00 87 1023.1
20260902201804 67 178 0.0 1.0 0.00 0.00 0.00 87 1022.5
20260902201743 67 178 1.0 1.0 0.00 0.00 0.00 87 1023.1
20260902201728 67 178 0.0 1.0 0.00 0.00 0.00 87 1023.1
20260902201554 55 178 0.0 1.0 0.00 0.00 0.00 100 1023.6
20260902201304 67 178 0.0 1.0 0.00 0.00 0.00 87 1022.5
20260902200805 67 246 0.0 1.0 0.00 0.00 0.00 86 1022.3
20260902200743 67 45 0.0 1.0 0.00 0.00 0.00 86 1023.0
20260902200304 67 237 0.0 1.0 0.00 0.00 0.00 86 1022.4
20260902200244 67 269 0.0 1.0 0.00 0.00 0.00 86 1023.0
20260902200045 55 0 0.0 1.0 0.00 0.00 0.00 100 1023.5
20260902195804 67 226 0.0 1.0 0.00 0.00 0.00 86 1022.3
20260902195743 67 206 0.0 1.0 0.00 0.00 0.00 86 1023.0
20260902195306 68 220 0.0 2.0 0.00 0.00 0.00 86 1022.2
20260902195245 68 269 1.0 1.0 0.00 0.00 0.00 86 1022.9
20260902194804 68 312 0.0 2.0 0.00 0.00 0.00 86 1022.2
20260902194742 68 269 0.0 1.0 0.00 0.00 0.00 85 1022.7
20260902194541 55 282 1.0 1.0 0.00 0.00 0.00 100 1023.4
20260902194304 68 346 0.0 1.0 0.00 0.00 0.00 85 1022.2
20260902194245 68 45 0.0 2.0 0.00 0.00 0.00 85 1022.7
20260902193805 68 235 1.0 2.0 0.00 0.00 0.00 85 1022.2
20260902193743 68 223 1.0 2.0 0.00 0.00 0.00 84 1022.7
20260902193304 69 165 0.0 1.0 0.00 0.00 0.00 84 1022.1
20260902193243 69 45 0.0 1.0 0.00 0.00 0.00 84 1022.6
20260902193059 55 0 0.0 1.0 0.00 0.00 0.00 100 1023.2
20260902192803 69 229 0.0 1.0 0.00 0.00 0.00 84 1022.1
20260902192741 69 223 0.0 1.0 0.00 0.00 0.00 84 1022.6
20260902192306 69 234 1.0 1.0 0.00 0.00 0.00 84 1022.0
20260902192244 69 206 1.0 1.0 0.00 0.00 0.00 83 1022.6
20260902191804 69 208 1.0 2.0 0.00 0.00 0.00 83 1022.0
20260902191741 69 45 0.0 2.0 0.00 0.00 0.00 83 1022.6
20260902191544 55 205 0.0 1.0 0.00 0.00 0.00 100 1023.2
20260902191244 69 269 0.0 2.0 0.00 0.00 0.00 83 1022.5
20260902190804 70 223 0.0 1.0 0.00 0.00 0.00 83 1022.0
20260902190741 70 197 0.0 2.0 0.00 0.00 0.00 83 1022.5
20260902190305 70 218 1.0 2.0 0.00 0.00 0.00 83 1021.9
20260902190242 70 241 1.0 2.0 0.00 0.00 0.00 83 1022.5
20260902190053 55 0 0.0 2.0 0.00 0.00 0.00 100 1023.0
20260902185804 70 313 0.0 2.0 0.00 0.00 0.00 82 1021.9
20260902185741 70 296 0.0 2.0 0.00 0.00 0.00 82 1022.4
20260902185306 70 231 0.0 2.0 0.00 0.00 0.00 82 1021.9
20260902185243 70 241 0.0 3.0 0.00 0.00 0.00 82 1022.4
20260902184805 71 263 1.0 3.0 0.00 0.00 0.00 82 1021.9
20260902184740 71 213 1.0 3.0 0.00 0.00 0.00 82 1022.5
20260902184548 55 221 1.0 2.0 0.00 0.00 0.00 100 1023.1
20260902184304 71 235 1.0 3.0 0.00 0.00 0.00 82 1022.0
20260902184242 71 234 1.0 3.0 0.00 0.00 0.00 81 1022.5
20260902183741 71 247 1.0 3.0 0.00 0.00 0.00 81 1022.5
20260902183241 71 300 2.0 3.0 0.00 0.00 0.00 81 1022.5
20260902183105 55 291 0.0 3.0 0.00 0.00 0.00 100 1023.1
20260902182805 72 246 1.0 3.0 0.00 0.00 0.00 81 1022.0
20260902182741 72 197 1.0 3.0 0.00 0.00 0.00 81 1022.5
20260902182735 72 1 2.0 3.0 0.00 0.00 0.00 80 1022.6
20260902182306 72 329 1.0 3.0 0.00 0.00 0.00 80 1022.0
20260902181804 72 299 1.0 3.0 0.00 0.00 0.00 79 1022.1
20260902181740 72 296 1.0 3.0 0.00 0.00 0.00 79 1022.6
20260902181545 55 317 1.0 2.0 0.00 0.00 0.00 99 1023.2
20260902181304 72 312 2.0 3.0 0.00 0.00 0.00 79 1022.0
20260902181242 72 331 2.0 3.0 0.00 0.00 0.00 79 1022.6
20260902180804 73 287 1.0 3.0 0.00 0.00 0.00 78 1022.1
20260902180740 73 231 2.0 4.0 0.00 0.00 0.00 78 1022.6
20260902180508 73 296 2.0 5.0 0.00 0.00 0.00 78 1022.7
20260902180304 73 276 2.0 3.0 0.00 0.00 0.00 78 1022.2
20260902180042 55 265 1.0 4.0 0.00 0.00 0.00 97 1023.3
20260902175954 73 206 1.0 4.0 0.00 0.00 0.00 77 1022.7
20260902175937 73 331 2.0 5.0 0.00 0.00 0.00 77 1022.7
20260902174804 74 268 2.0 3.0 0.00 0.00 0.00 77 1022.2
20260902174740 74 257 2.0 4.0 0.00 0.00 0.00 77 1022.7
20260902174629 55 265 1.0 3.0 0.00 0.00 0.00 96 1023.4
20260902174243 74 303 3.0 4.0 0.00 0.00 0.00 77 1022.7
20260902173804 74 271 2.0 3.0 0.00 0.00 0.00 76 1022.2
20260902173739 74 296 2.0 4.0 0.00 0.00 0.00 76 1022.9
20260902173304 74 333 1.0 5.0 0.00 0.00 0.00 76 1022.2
20260902173240 74 306 2.0 6.0 0.00 0.00 0.00 75 1022.9
20260902173041 55 337 3.0 4.0 0.00 0.00 0.00 95 1023.4
20260902172805 74 321 2.0 7.0 0.00 0.00 0.00 75 1022.2
20260902172740 74 296 2.0 7.0 0.00 0.00 0.00 75 1022.9
20260902172500 75 310 3.0 7.0 0.00 0.00 0.00 75 1022.7
20260902172308 75 321 3.0 8.0 0.00 0.00 0.00 75 1022.2
20260902171804 75 324 2.0 7.0 0.00 0.00 0.00 75 1022.2
20260902171739 75 23 2.0 6.0 0.00 0.00 0.00 75 1022.9
20260902171556 55 265 1.0 4.0 0.00 0.00 0.00 94 1023.4
20260902171240 75 269 2.0 6.0 0.00 0.00 0.00 74 1022.7
20260902170804 75 265 2.0 6.0 0.00 0.00 0.00 75 1022.1
20260902170740 75 279 2.0 6.0 0.00 0.00 0.00 75 1022.7
20260902170239 75 326 3.0 5.0 0.00 0.00 0.00 74 1022.6
20260902170050 55 232 2.0 4.0 0.00 0.00 0.00 94 1023.2
20260902170004 75 259 3.0 6.0 0.00 0.00 0.00 74 1022.6
20260902165804 75 274 2.0 7.0 0.00 0.00 0.00 74 1022.0
20260902165308 76 299 2.0 7.0 0.00 0.00 0.00 74 1022.0
20260902165251 76 299 3.0 6.0 0.00 0.00 0.00 75 1022.6
20260902164737 76 210 2.0 4.0 0.00 0.00 0.00 75 1022.6
20260902164544 55 291 2.0 3.0 0.00 0.00 0.00 94 1023.2
20260902164506 75 258 3.0 4.0 0.00 0.00 0.00 75 1022.6
20260902163804 75 310 3.0 8.0 0.00 0.00 0.00 75 1021.9
20260902163738 75 334 2.0 4.0 0.00 0.00 0.00 75 1022.6
20260902163319 75 348 2.0 6.0 0.00 0.00 0.00 76 1022.6
20260902163059 55 298 1.0 8.0 0.00 0.00 0.00 95 1023.1
20260902162804 74 278 2.0 8.0 0.00 0.00 0.00 76 1022.0
20260902162737 74 254 3.0 6.0 0.00 0.00 0.00 76 1022.5
20260902162311 74 213 3.0 7.0 0.00 0.00 0.00 75 1022.6
20260902162307 74 314 3.0 7.0 0.00 0.00 0.00 75 1022.1
20260902161804 74 257 3.0 8.0 0.00 0.00 0.00 75 1022.1
20260902161738 74 314 2.0 7.0 0.00 0.00 0.00 75 1022.6
20260902161551 55 309 3.0 5.0 0.00 0.00 0.00 95 1023.3
20260902161304 74 296 3.0 7.0 0.00 0.00 0.00 75 1022.1
20260902161301 74 334 3.0 5.0 0.00 0.00 0.00 75 1022.7
20260902160804 75 316 3.0 7.0 0.00 0.00 0.00 75 1022.2
20260902160737 75 28 3.0 9.0 0.00 0.00 0.00 75 1022.7
20260902160304 75 265 3.0 10.0 0.00 0.00 0.00 75 1022.2
20260902160244 75 251 4.0 9.0 0.00 0.00 0.00 75 1022.9
20260902160045 55 239 4.0 5.0 0.00 0.00 0.00 94 1023.4
20260902155804 75 319 2.0 7.0 0.00 0.00 0.00 74 1022.2
20260902155737 75 337 3.0 9.0 0.00 0.00 0.00 74 1022.7
20260902155306 75 307 2.0 9.0 0.00 0.00 0.00 75 1022.2
20260902155239 75 27 3.0 9.0 0.00 0.00 0.00 75 1022.9
20260902154805 75 292 2.0 5.0 0.00 0.00 0.00 76 1022.2
20260902154739 75 241 2.0 6.0 0.00 0.00 0.00 76 1022.7
20260902154542 55 265 2.0 4.0 0.00 0.00 0.00 96 1023.4
20260902154304 75 306 3.0 7.0 0.00 0.00 0.00 76 1022.2
20260902154238 75 309 4.0 6.0 0.00 0.00 0.00 76 1022.9
20260902153804 75 316 3.0 6.0 0.00 0.00 0.00 76 1022.3
20260902153736 74 269 3.0 9.0 0.00 0.00 0.00 76 1023.0
20260902153507 74 1 3.0 9.0 0.00 0.00 0.00 77 1023.0
20260902153439 74 197 4.0 9.0 0.00 0.00 0.00 76 1023.0
20260902153051 55 296 4.0 8.0 0.00 0.00 0.00 96 1023.5
20260902152307 74 295 3.0 9.0 0.00 0.00 0.00 77 1022.3
20260902152238 74 312 4.0 9.0 0.00 0.00 0.00 77 1023.0
20260902151804 74 297 3.0 8.0 0.00 0.00 0.00 76 1022.3
20260902151736 74 310 4.0 7.0 0.00 0.00 0.00 76 1023.0
20260902151549 55 317 4.0 6.0 0.00 0.00 0.00 95 1023.5
20260902151457 74 314 4.0 9.0 0.00 0.00 0.00 75 1023.0
20260902151305 74 292 3.0 10.0 0.00 0.00 0.00 76 1022.4
20260902150804 75 292 3.0 10.0 0.00 0.00 0.00 75 1022.4
20260902150736 75 314 4.0 9.0 0.00 0.00 0.00 75 1023.0
20260902150508 75 290 3.0 6.0 0.00 0.00 0.00 76 1023.0
20260902150048 55 306 4.0 8.0 0.00 0.00 0.00 95 1023.6
20260902145804 75 289 3.0 8.0 0.00 0.00 0.00 76 1022.4
20260902145735 75 300 4.0 7.0 0.00 0.00 0.00 76 1023.0
20260902145306 75 312 3.0 8.0 0.00 0.00 0.00 76 1022.4
20260902145238 75 343 2.0 7.0 0.00 0.00 0.00 76 1023.0
20260902144804 75 321 3.0 9.0 0.00 0.00 0.00 75 1022.4
20260902144737 75 320 3.0 10.0 0.00 0.00 0.00 74 1023.0
20260902144542 55 316 3.0 6.0 0.00 0.00 0.00 94 1023.6
20260902144305 75 301 4.0 10.0 0.00 0.00 0.00 74 1022.4
20260902144240 75 293 5.0 10.0 0.00 0.00 0.00 74 1023.1
20260902143804 75 324 3.0 8.0 0.00 0.00 0.00 74 1022.5
20260902143735 76 354 4.0 9.0 0.00 0.00 0.00 74 1023.1
20260902143304 76 318 3.0 9.0 0.00 0.00 0.00 74 1022.6
20260902143237 76 45 5.0 9.0 0.00 0.00 0.00 74 1023.1
20260902143051 55 280 3.0 6.0 0.00 0.00 0.00 94 1023.7
20260902142804 76 299 3.0 8.0 0.00 0.00 0.00 75 1022.6
20260902142735 76 343 4.0 7.0 0.00 0.00 0.00 75 1023.2
20260902142459 76 313 4.0 7.0 0.00 0.00 0.00 74 1023.2
20260902141804 76 307 3.0 8.0 0.00 0.00 0.00 75 1022.6
20260902141736 76 279 3.0 7.0 0.00 0.00 0.00 75 1023.2
20260902141542 55 309 2.0 4.0 0.00 0.00 0.00 94 1023.9
20260902141303 76 322 3.0 8.0 0.00 0.00 0.00 74 1022.7
20260902141244 76 347 3.0 6.0 0.00 0.00 0.00 74 1023.2
20260902140735 75 296 2.0 7.0 0.00 0.00 0.00 74 1023.2
20260902140515 75 285 3.0 9.0 0.00 0.00 0.00 74 1023.2
20260902140304 75 260 3.0 8.0 0.00 0.00 0.00 74 1022.7
20260902140047 55 309 2.0 4.0 0.00 0.00 0.00 93 1023.9
20260902135804 75 300 3.0 10.0 0.00 0.00 0.00 74 1022.7
20260902135737 75 314 2.0 9.0 0.00 0.00 0.00 74 1023.3
20260902135236 75 343 3.0 9.0 0.00 0.00 0.00 74 1023.3
20260902134804 75 297 3.0 9.0 0.00 0.00 0.00 74 1022.7
20260902134734 75 221 4.0 9.0 0.00 0.00 0.00 74 1023.4
20260902134551 55 340 3.0 5.0 0.00 0.00 0.00 73 1023.9
20260902134304 75 325 3.0 8.0 0.00 0.00 0.00 74 1022.7
20260902134236 75 336 2.0 7.0 0.00 0.00 0.00 74 1023.3
20260902133804 75 318 3.0 10.0 0.00 0.00 0.00 74 1022.8
20260902133734 75 296 4.0 10.0 0.00 0.00 0.00 73 1023.3
20260902133304 75 286 5.0 10.0 0.00 0.00 0.00 73 1022.7
20260902133236 75 331 5.0 10.0 0.00 0.00 0.00 73 1023.3
20260902133041 55 347 2.0 7.0 0.00 0.00 0.00 92 1023.9
20260902132804 76 289 3.0 12.0 0.00 0.00 0.00 73 1022.7
20260902132734 76 214 3.0 9.0 0.00 0.00 0.00 72 1023.2
20260902132306 76 283 3.0 8.0 0.00 0.00 0.00 72 1022.6
20260902132236 76 250 3.0 7.0 0.00 0.00 0.00 73 1023.2
20260902131805 76 4 3.0 5.0 0.00 0.00 0.00 73 1022.6
20260902131735 76 314 3.0 5.0 0.00 0.00 0.00 73 1023.2
20260902131553 55 294 1.0 5.0 0.00 0.00 0.00 93 1023.8
20260902131237 75 347 2.0 7.0 0.00 0.00 0.00 72 1023.2
20260902130958 75 314 4.0 9.0 0.00 0.00 0.00 71 1023.2
20260902130804 75 310 4.0 8.0 0.00 0.00 0.00 71 1022.6
20260902130512 75 298 3.0 9.0 0.00 0.00 0.00 71 1023.1
20260902130304 75 313 3.0 12.0 0.00 0.00 0.00 71 1022.5
20260902130046 55 265 3.0 7.0 0.00 0.00 0.00 91 1023.9
20260902130002 76 337 3.0 7.0 0.00 0.00 0.00 70 1023.2
20260902125804 76 306 3.0 9.0 0.00 0.00 0.00 70 1022.6
20260902125305 76 302 3.0 8.0 0.00 0.00 0.00 69 1022.6
20260902125236 76 293 4.0 7.0 0.00 0.00 0.00 69 1023.2
20260902124803 76 289 2.0 8.0 0.00 0.00 0.00 70 1022.5
20260902124733 76 279 3.0 9.0 0.00 0.00 0.00 70 1023.3
20260902124543 55 291 5.0 7.0 0.00 0.00 0.00 100 1023.8
20260902124304 76 326 3.0 9.0 0.00 0.00 0.00 69 1022.6
20260902124235 76 344 3.0 9.0 0.00 0.00 0.00 69 1023.2
20260902123803 76 310 3.0 7.0 0.00 0.00 0.00 68 1022.6
20260902123733 76 292 3.0 7.0 0.00 0.00 0.00 69 1023.3
20260902123303 76 334 3.0 8.0 0.00 0.00 0.00 69 1022.6
20260902123235 76 1 3.0 7.0 0.00 0.00 0.00 69 1023.3
20260902123055 55 316 3.0 4.0 0.00 0.00 0.00 100 1023.9
20260902122803 76 326 2.0 7.0 0.00 0.00 0.00 68 1022.7
20260902122733 76 8 2.0 7.0 0.00 0.00 0.00 68 1023.4
20260902122305 75 312 2.0 8.0 0.00 0.00 0.00 69 1022.7
20260902122237 75 329 2.0 7.0 0.00 0.00 0.00 69 1023.3
20260902121803 75 272 2.0 5.0 0.00 0.00 0.00 68 1022.7
20260902121732 75 178 2.0 4.0 0.00 0.00 0.00 69 1023.4
20260902121548 55 280 2.0 6.0 0.00 0.00 0.00 100 1023.9
20260902121457 75 299 2.0 5.0 0.00 0.00 0.00 68 1023.4
20260902121303 75 257 2.0 3.0 0.00 0.00 0.00 68 1022.7
20260902120734 75 326 3.0 5.0 0.00 0.00 0.00 68 1023.4
20260902120721 75 296 2.0 5.0 0.00 0.00 0.00 69 1023.4
20260902120303 75 273 2.0 3.0 0.00 0.00 0.00 69 1022.7
20260902120046 55 0 2.0 3.0 0.00 0.00 0.00 100 1024.0
20260902115803 74 335 2.0 5.0 0.00 0.00 0.00 69 1022.8
20260902115732 74 317 2.0 5.0 0.00 0.00 0.00 69 1023.4
20260902115457 74 241 2.0 5.0 0.00 0.00 0.00 69 1023.4
20260902115306 74 205 2.0 6.0 0.00 0.00 0.00 69 1022.8
20260902114732 74 324 1.0 4.0 0.00 0.00 0.00 69 1023.5
20260902114545 55 317 1.0 4.0 0.00 0.00 0.00 100 1024.1
20260902114303 74 331 2.0 3.0 0.00 0.00 0.00 70 1022.9
20260902114234 74 279 2.0 5.0 0.00 0.00 0.00 70 1023.6
20260902113803 74 308 2.0 3.0 0.00 0.00 0.00 70 1023.0
20260902113732 74 341 2.0 5.0 0.00 0.00 0.00 70 1023.6
20260902113304 73 284 1.0 5.0 0.00 0.00 0.00 71 1023.0
20260902113235 73 314 2.0 4.0 0.00 0.00 0.00 71 1023.7
20260902113040 55 190 1.0 2.0 0.00 0.00 0.00 100 1024.2
20260902112954 73 250 1.0 5.0 0.00 0.00 0.00 72 1023.7
20260902112803 73 254 1.0 5.0 0.00 0.00 0.00 72 1023.0
20260902112233 72 296 2.0 5.0 0.00 0.00 0.00 73 1023.7
20260902111803 72 337 2.0 3.0 0.00 0.00 0.00 73 1023.0
20260902111731 72 338 2.0 4.0 0.00 0.00 0.00 73 1023.7
20260902111547 55 292 1.0 3.0 0.00 0.00 0.00 100 1024.4
20260902111232 72 269 2.0 4.0 0.00 0.00 0.00 73 1023.8
20260902111005 72 241 2.0 3.0 0.00 0.00 0.00 74 1023.8
20260902110805 72 287 2.0 3.0 0.00 0.00 0.00 74 1023.2
20260902110303 71 286 1.0 3.0 0.00 0.00 0.00 75 1023.2
20260902110232 71 296 1.0 3.0 0.00 0.00 0.00 76 1023.8
20260902110046 55 319 0.0 3.0 0.00 0.00 0.00 100 1024.4
20260902105803 71 335 2.0 3.0 0.00 0.00 0.00 76 1023.2
20260902105730 71 320 2.0 6.0 0.00 0.00 0.00 76 1023.9
20260902105500 70 254 3.0 6.0 0.00 0.00 0.00 76 1023.8
20260902105306 70 288 2.0 6.0 0.00 0.00 0.00 76 1023.2
20260902104953 70 206 1.0 4.0 0.00 0.00 0.00 78 1023.8
20260902104803 70 210 1.0 3.0 0.00 0.00 0.00 78 1023.1
20260902104608 69 310 1.0 4.0 0.00 0.00 0.00 79 1023.8
20260902104543 55 316 1.0 3.0 0.00 0.00 0.00 100 1024.4
20260902104303 69 299 1.0 3.0 0.00 0.00 0.00 79 1023.1
20260902103803 69 264 1.0 3.0 0.00 0.00 0.00 79 1023.0
20260902103735 69 178 1.0 3.0 0.00 0.00 0.00 79 1023.7
20260902103557 68 269 1.0 3.0 0.00 0.00 0.00 82 1023.8
20260902103303 68 268 1.0 3.0 0.00 0.00 0.00 81 1023.1
20260902103048 55 9 1.0 2.0 0.00 0.00 0.00 100 1024.4
20260902102731 67 223 1.0 4.0 0.00 0.00 0.00 83 1023.8
20260902102307 67 205 1.0 3.0 0.00 0.00 0.00 84 1023.2
20260902102231 67 269 1.0 4.0 0.00 0.00 0.00 84 1023.9
20260902101802 67 326 1.0 3.0 0.00 0.00 0.00 86 1023.2
20260902101732 67 331 1.0 2.0 0.00 0.00 0.00 86 1023.8
20260902101544 55 205 1.0 3.0 0.00 0.00 0.00 100 1024.5
20260902101303 66 278 1.0 3.0 0.00 0.00 0.00 86 1023.2
20260902101233 66 234 1.0 3.0 0.00 0.00 0.00 86 1023.9
20260902100803 66 321 1.0 3.0 0.00 0.00 0.00 87 1023.2
20260902100733 66 45 2.0 3.0 0.00 0.00 0.00 89 1023.9
20260902100727 65 32 2.0 3.0 0.00 0.00 0.00 90 1023.8
20260902100516 65 32 2.0 3.0 0.00 0.00 0.00 90 1023.8
20260902100043 55 265 1.0 2.0 0.00 0.00 0.00 100 1024.4
20260902095731 64 331 1.0 2.0 0.00 0.00 0.00 91 1023.7
20260902095306 64 6 1.0 2.0 0.00 0.00 0.00 93 1023.1
20260902095232 64 1 1.0 2.0 0.00 0.00 0.00 93 1023.8
20260902094803 63 237 1.0 2.0 0.00 0.00 0.00 93 1023.2
20260902094730 63 241 1.0 2.0 0.00 0.00 0.00 93 1023.8
20260902094543 55 248 0.0 2.0 0.00 0.00 0.00 100 1024.4
20260902094303 63 233 1.0 2.0 0.00 0.00 0.00 94 1023.1
20260902094231 63 223 1.0 2.0 0.00 0.00 0.00 94 1023.8
20260902093803 63 322 1.0 2.0 0.00 0.00 0.00 95 1023.1
20260902093730 63 28 1.0 2.0 0.00 0.00 0.00 95 1023.7
20260902093303 62 18 1.0 3.0 0.00 0.00 0.00 95 1023.1
20260902093232 62 331 1.0 2.0 0.00 0.00 0.00 95 1023.7
20260902093043 55 201 1.0 2.0 0.00 0.00 0.00 100 1024.4
20260902092803 62 209 1.0 2.0 0.00 0.00 0.00 95 1023.1
20260902092729 62 269 1.0 2.0 0.00 0.00 0.00 95 1023.8
20260902092305 62 221 1.0 2.0 0.00 0.00 0.00 96 1023.1
20260902092230 62 206 1.0 2.0 0.00 0.00 0.00 96 1023.7
20260902091730 62 231 1.0 2.0 0.00 0.00 0.00 96 1023.8
20260902091542 55 282 1.0 2.0 0.00 0.00 0.00 100 1024.4
20260902091303 61 1 1.0 2.0 0.00 0.00 0.00 96 1023.1
20260902091230 61 1 1.0 2.0 0.00 0.00 0.00 96 1023.7
20260902090803 61 224 1.0 2.0 0.00 0.00 0.00 96 1023.0
20260902090730 61 241 1.0 2.0 0.00 0.00 0.00 96 1023.7
20260902090302 60 34 1.0 2.0 0.00 0.00 0.00 96 1023.0
20260902090229 60 56 1.0 2.0 0.00 0.00 0.00 96 1023.7
20260902090043 55 250 1.0 2.0 0.00 0.00 0.00 100 1024.3
20260902085803 60 211 1.0 2.0 0.00 0.00 0.00 96 1023.1
20260902085729 60 45 1.0 2.0 0.00 0.00 0.00 96 1023.7
20260902085229 59 45 1.0 2.0 0.00 0.00 0.00 96 1023.6
20260902084956 59 269 1.0 2.0 0.00 0.00 0.00 96 1023.8
20260902084803 59 251 1.0 2.0 0.00 0.00 0.00 96 1023.0
20260902084549 55 9 0.0 2.0 0.00 0.00 0.00 100 1024.3
20260902084229 59 314 1.0 2.0 0.00 0.00 0.00 96 1023.8
20260902083803 59 234 1.0 2.0 0.00 0.00 0.00 96 1022.9
20260902083728 59 269 1.0 2.0 0.00 0.00 0.00 96 1023.6
20260902083303 58 230 1.0 2.0 0.00 0.00 0.00 96 1023.0
20260902083229 58 223 1.0 2.0 0.00 0.00 0.00 96 1023.6
20260902083043 55 0 0.0 1.0 0.00 0.00 0.00 100 1024.2
20260902082802 58 214 1.0 1.0 0.00 0.00 0.00 96 1022.9
20260902082728 58 178 1.0 2.0 0.00 0.00 0.00 96 1023.5
20260902082308 58 242 1.0 2.0 0.00 0.00 0.00 96 1022.8
20260902082228 58 231 1.0 2.0 0.00 0.00 0.00 96 1023.4
20260902081803 58 241 1.0 2.0 0.00 0.00 0.00 96 1022.8
20260902081728 58 269 1.0 2.0 0.00 0.00 0.00 96 1023.5
20260902081545 55 273 1.0 1.0 0.00 0.00 0.00 100 1024.0
20260902081303 58 233 1.0 2.0 0.00 0.00 0.00 96 1022.7
20260902081228 58 269 1.0 2.0 0.00 0.00 0.00 96 1023.4
20260902080945 57 314 1.0 2.0 0.00 0.00 0.00 96 1023.2
20260902080803 57 269 1.0 2.0 0.00 0.00 0.00 96 1022.6
20260902080303 57 246 0.0 2.0 0.00 0.00 0.00 96 1022.5
20260902080228 57 206 0.0 2.0 0.00 0.00 0.00 96 1023.2
20260902080042 55 0 0.0 1.0 0.00 0.00 0.00 100 1023.8
20260902075803 57 346 1.0 2.0 0.00 0.00 0.00 96 1022.6
20260902075727 57 1 1.0 2.0 0.00 0.00 0.00 96 1023.2
20260902075306 57 230 1.0 2.0 0.00 0.00 0.00 96 1022.5
20260902075228 57 223 1.0 2.0 0.00 0.00 0.00 96 1023.1
20260902074802 56 214 1.0 2.0 0.00 0.00 0.00 96 1022.4
20260902074726 56 223 1.0 2.0 0.00 0.00 0.00 96 1023.1
20260902074556 55 0 0.0 1.0 0.00 0.00 0.00 100 1023.6
20260902074449 56 269 0.0 1.0 0.00 0.00 0.00 96 1023.0
20260902074303 56 194 1.0 1.0 0.00 0.00 0.00 96 1022.3
20260902073944 56 283 0.0 1.0 0.00 0.00 0.00 96 1023.0
20260902073303 56 211 0.0 2.0 0.00 0.00 0.00 96 1022.2
20260902073227 56 89 0.0 1.0 0.00 0.00 0.00 95 1022.9
20260902073040 55 126 0.0 2.0 0.00 0.00 0.00 100 1023.5
20260902072803 56 168 0.0 1.0 0.00 0.00 0.00 95 1022.3
20260902072726 56 206 1.0 2.0 0.00 0.00 0.00 95 1022.9
20260902072309 56 220 0.0 2.0 0.00 0.00 0.00 95 1022.2
20260902072227 56 223 0.0 2.0 0.00 0.00 0.00 95 1022.9
20260902071803 56 150 1.0 2.0 0.00 0.00 0.00 95 1022.2
20260902071726 56 124 1.0 2.0 0.00 0.00 0.00 95 1022.9
20260902071542 55 0 0.0 1.0 0.00 0.00 0.00 100 1023.5
20260902071453 55 28 1.0 2.0 0.00 0.00 0.00 95 1022.9
20260902071303 55 160 1.0 2.0 0.00 0.00 0.00 95 1022.2
20260902070803 55 164 0.0 1.0 0.00 0.00 0.00 95 1022.2
20260902070726 55 269 0.0 1.0 0.00 0.00 0.00 95 1022.7
20260902070452 55 251 0.0 1.0 0.00 0.00 0.00 95 1022.7
20260902070044 55 0 0.0 1.0 0.00 0.00 0.00 100 1023.4
20260902065947 55 269 0.0 1.0 0.00 0.00 0.00 95 1022.5
20260902065804 55 336 0.0 1.0 0.00 0.00 0.00 95 1022.0
20260902065306 55 120 0.0 1.0 0.00 0.00 0.00 95 1021.9
20260902065227 55 223 0.0 1.0 0.00 0.00 0.00 95 1022.5
20260902064803 55 320 0.0 1.0 0.00 0.00 0.00 95 1021.8
20260902064725 55 331 0.0 1.0 0.00 0.00 0.00 95 1022.4
20260902064550 59 0 1.0 1.0 0.00 0.00 0.00 100 1023.0
20260902064303 55 252 0.0 1.0 0.00 0.00 0.00 95 1021.7
20260902064226 55 16 0.0 1.0 0.00 0.00 0.00 95 1022.2